Surface/Precipitation History
01/17/2019 21:25  to  1/18/2019 21:25
Change End Date:
Date/Time
(MST)
Sf
Temp Chem Water Layer Surface Precipitation
Sfc Pvt Sub Frz Factor Pct Dpth DpthThk IcePct Cond Salin FI Type Intens Accum Rate
01/18/2019 21:15 Ice Warning 25.7F - 31F 32F 95 1% - - 95% 3 mhos 316 - None None - -
01/18/2019 21:11 Ice Warning 25.7F - 31F 32F 95 1% - - 95% 3 mhos 293 - None None - -
01/18/2019 21:01 Ice Warning 25.7F - 31F 32F 95 1% - - 95% 3 mhos 316 - None None - -
01/18/2019 20:50 Ice Warning 25.5F - 31F 32F 95 1% - - 96% 2 mhos 287 - None None - -
01/18/2019 20:45 Ice Warning 25.5F - 31F 32F 95 1% - - 95% 3 mhos 321 - None None - -
01/18/2019 20:40 Ice Warning 25.5F - 31F 32F 95 1% - - 96% 2 mhos 287 - None None - -
01/18/2019 20:30 Ice Warning 25.5F - 31F 32F 95 1% - - 96% 3 mhos 294 - None None - -
01/18/2019 20:20 Ice Warning 25.5F - 31F 32F 95 1% - - 96% 3 mhos 294 - None None - -
01/18/2019 20:15 Ice Warning 25.5F - 31F 32F 95 1% - - 95% 3 mhos 309 - None None - -
01/18/2019 20:10 Ice Warning 25.5F - 31F 32F 95 1% - - 96% 2 mhos 291 - Yes - - -
01/18/2019 20:00 Ice Warning 25.5F - 31F 32F 95 1% - - 96% 2 mhos 291 - None None - -
01/18/2019 19:50 Ice Warning 25.5F - 31F 32F 95 1% - - 96% 2 mhos 291 - None None - -
01/18/2019 19:45 Ice Warning 25.3F - 31F 32F 95 1% - - 96% 3 mhos 302 - None None - -
01/18/2019 19:40 Ice Warning 25.3F - 31F 32F 95 1% - - 96% 3 mhos 302 - None None - -
01/18/2019 19:30 Ice Warning 25.3F - 31F 32F 95 1% - - 95% 3 mhos 309 - None None - -
Date/Time
(MST)
Sf
Temp Chem Water Layer Surface Precipitation
Sfc Pvt Sub Frz Factor Pct Dpth DpthThk IcePct Cond Salin FI Type Intens Accum Rate
01/18/2019 19:20 Ice Warning 25.3F - 31F 32F 95 1% - - 95% 3 mhos 340 - Yes - - -
01/18/2019 19:17 Ice Warning 25.3F - 31F 32F 95 1% - - 96% 3 mhos 295 - Yes - - -
01/18/2019 19:10 Ice Warning 25.2F - 31F 32F 95 1% - - 96% 2 mhos 292 - None None - -
01/18/2019 19:00 Ice Warning 25.2F - 31F 32F 95 1% - - 96% 3 mhos 296 - None None - -
01/18/2019 18:50 Ice Warning 25.2F - 31F 32F 95 1% - - 96% 3 mhos 300 - None None - -
01/18/2019 18:45 Ice Warning 25.2F - 31F 32F 95 1% - - 96% 2 mhos 271 - None None - -
01/18/2019 18:40 Ice Warning 25.2F - 31F 32F 95 1% - - 96% 2 mhos 293 - None None - -
01/18/2019 18:30 Ice Warning 25.0F - 31F 32F 95 1% - - 96% 2 mhos 265 - None None - -
01/18/2019 18:20 Ice Warning 25.0F - 31F 32F 95 1% - - 96% 2 mhos 280 - None None - -
01/18/2019 18:15 Ice Warning 24.8F - 31F 32F 95 1% - - 96% 2 mhos 266 - None None - -
01/18/2019 18:10 Ice Warning 24.8F - 31F 32F 95 1% - - 96% 2 mhos 281 - None None - -
01/18/2019 18:00 Ice Warning 24.8F - 31F 32F 95 1% - - 96% 2 mhos 278 - None None - -
01/18/2019 17:50 Ice Warning 24.8F - 31F 32F 95 1% - - 97% 2 mhos 258 - None None - -
01/18/2019 17:45 Ice Warning 24.8F - 31F 32F 95 1% - - 96% 2 mhos 266 - None None - -
01/18/2019 17:40 Ice Warning 24.6F - 31F 32F 95 1% - - 97% 2 mhos 256 - Yes - - -
Date/Time
(MST)
Sf
Temp Chem Water Layer Surface Precipitation
Sfc Pvt Sub Frz Factor Pct Dpth DpthThk IcePct Cond Salin FI Type Intens Accum Rate
01/18/2019 17:30 Ice Warning 24.6F - 31F 32F 95 1% - - 97% 2 mhos 256 - None None - -
01/18/2019 17:19 Ice Warning 24.6F - 31F 32F 95 1% - - 97% 2 mhos 246 - None None - -
01/18/2019 17:15 Ice Warning 24.4F - 31F 32F 95 1% - - 97% 2 mhos 251 - None None - -
01/18/2019 17:09 Ice Warning 24.4F - 31F 32F 95 1% - - 97% 2 mhos 267 - Yes - - -
01/18/2019 16:59 Ice Warning 24.6F - 31F 32F 95 1% - - 96% 2 mhos 270 - None None - -
01/18/2019 16:49 Ice Warning 24.8F - 31F 32F 95 1% - - 96% 2 mhos 269 - Yes - - -
01/18/2019 16:45 Ice Warning 24.8F - 31F 32F 95 1% - - 96% 2 mhos 266 - Yes - - -
01/18/2019 16:39 Ice Warning 24.8F - 31F 32F 95 1% - - 96% 2 mhos 269 - Yes - - -
01/18/2019 16:29 Ice Warning 24.8F - 31F 32F 95 1% - - 97% 2 mhos 258 - Yes - - -
01/18/2019 16:19 Ice Warning 24.8F - 31F 32F 95 1% - - 97% 2 mhos 258 - Yes - - -
01/18/2019 16:15 Ice Warning 24.8F - 31F 32F 95 1% - - 96% 2 mhos 284 - Yes - - -
01/18/2019 16:09 Ice Warning 24.6F - 31F 32F 95 1% - - 96% 2 mhos 282 - Yes - - -
01/18/2019 15:59 Ice Warning 24.8F - 31F 32F 95 1% - - 96% 2 mhos 281 - Yes - - -
01/18/2019 15:49 Ice Warning 24.6F - 31F 32F 95 1% - - 96% 2 mhos 275 - Yes - - -
01/18/2019 15:45 Ice Warning 24.4F - 31F 32F 95 1% - - 96% 2 mhos 279 - Yes - - -
Date/Time
(MST)
Sf
Temp Chem Water Layer Surface Precipitation
Sfc Pvt Sub Frz Factor Pct Dpth DpthThk IcePct Cond Salin FI Type Intens Accum Rate
01/18/2019 15:39 Ice Warning 24.6F - 31F 32F 95 1% - - 96% 2 mhos 272 - Yes - - -
01/18/2019 15:29 Ice Warning 24.4F - 31F 32F 95 1% - - 97% 2 mhos 259 - Yes - - -
01/18/2019 15:19 Ice Warning 24.3F - 31F 32F 95 1% - - 97% 2 mhos 252 - Yes - - -
01/18/2019 15:15 Ice Warning 24.3F - 31F 32F 95 1% - - 97% 2 mhos 262 - Yes - - -
01/18/2019 15:09 Ice Warning 24.1F - 31F 32F 95 1% - - 97% 2 mhos 245 - Yes - - -
01/18/2019 14:59 Ice Warning 23.9F - 31F 32F 95 1% - - 97% 2 mhos 258 - None None - -
01/18/2019 14:49 Ice Warning 23.9F - 31F 32F 95 1% - - 97% 2 mhos 232 - Yes - - -
01/18/2019 14:45 Ice Warning 23.9F - 31F 32F 95 1% - - 97% 2 mhos 239 - None None - -
01/18/2019 14:39 Ice Warning 23.9F - 31F 32F 95 1% - - 97% 2 mhos 249 - None None - -
01/18/2019 14:29 Ice Warning 23.9F - 31F 32F 95 1% - - 97% 2 mhos 242 - Yes - - -
01/18/2019 14:18 Ice Warning 23.9F - 31F 32F 95 1% - - 97% 2 mhos 242 - None None - -
01/18/2019 14:15 Ice Warning 23.9F - 31F 32F 95 1% - - 97% 2 mhos 229 - None None - -
01/18/2019 14:08 Ice Warning 23.7F - 31F 32F 95 1% - - 97% 2 mhos 229 - Yes - - -
01/18/2019 13:58 Ice Warning 23.9F - 31F 32F 95 1% - - 97% 2 mhos 239 - Yes - - -
01/18/2019 13:48 Ice Warning 23.7F - 31F 32F 95 1% - - 97% 2 mhos 240 - Yes - - -
Date/Time
(MST)
Sf
Temp Chem Water Layer Surface Precipitation
Sfc Pvt Sub Frz Factor Pct Dpth DpthThk IcePct Cond Salin FI Type Intens Accum Rate
01/18/2019 13:45 Ice Warning 23.5F - 31F 32F 95 1% - - 97% 2 mhos 238 - Yes - - -
01/18/2019 13:38 Ice Warning 23.5F - 31F 32F 95 1% - - 97% 2 mhos 232 - Yes - - -
01/18/2019 13:28 Ice Warning 23.5F - 31F 32F 95 1% - - 97% 2 mhos 230 - Yes - - -
01/18/2019 13:18 Ice Warning 23.4F - 31F 32F 95 1% - - 98% 2 mhos 220 - Yes - - -
01/18/2019 13:15 Ice Warning 23.4F - 31F 32F 95 1% - - 97% 2 mhos 232 - Yes - - -
01/18/2019 13:08 Ice Warning 23.0F - 31F 32F 95 1% - - 98% 2 mhos 221 - Yes - - -
01/18/2019 12:58 Ice Warning 22.8F - 31F 32F 95 1% - - 98% 2 mhos 204 - None None - -
01/18/2019 12:48 Ice Warning 23.0F - 31F 32F 95 1% - - 98% 2 mhos 204 - None None - -
01/18/2019 12:45 Ice Warning 22.8F - 31F 32F 95 1% - - 98% 2 mhos 213 - None None - -
01/18/2019 12:38 Ice Warning 22.8F - 31F 32F 95 1% - - 98% 2 mhos 206 - Yes - - -
01/18/2019 12:28 Ice Warning 22.8F - 31F 32F 95 1% - - 98% 2 mhos 211 - Yes - - -
01/18/2019 12:18 Ice Warning 22.6F - 31F 32F 95 1% - - 98% 2 mhos 209 - Yes - - -
01/18/2019 12:15 Ice Warning 22.6F - 31F 32F 95 1% - - 98% 2 mhos 212 - Yes - - -
01/18/2019 12:08 Ice Warning 22.5F - 31F 32F 95 1% - - 98% 2 mhos 191 - Yes - - -
01/18/2019 11:58 Ice Warning 22.1F - 31F 32F 95 1% - - 98% 2 mhos 192 - Yes - - -
Date/Time
(MST)
Sf
Temp Chem Water Layer Surface Precipitation
Sfc Pvt Sub Frz Factor Pct Dpth DpthThk IcePct Cond Salin FI Type Intens Accum Rate
01/18/2019 11:48 Ice Warning 21.9F - 31F 32F 95 1% - - 98% 1 mhos 184 - Yes - - -
01/18/2019 11:45 Ice Warning 21.9F - 31F 32F 95 1% - - 98% 1 mhos 184 - Yes - - -
01/18/2019 11:38 Ice Warning 21.7F - 31F 32F 95 1% - - 98% 1 mhos 184 - Yes - - -
01/18/2019 11:27 Ice Warning 21.7F - 31F 32F 95 1% - - 98% 2 mhos 187 - Yes - - -
01/18/2019 11:17 Ice Warning 21.7F - 31F 32F 95 1% - - 98% 1 mhos 178 - Yes - - -
01/18/2019 11:15 Ice Warning 21.7F - 31F 32F 95 1% - - 98% 1 mhos 185 - Yes - - -
01/18/2019 11:07 Ice Warning 21.6F - 31F 32F 95 1% - - 98% 1 mhos 183 - None None - -
01/18/2019 10:57 Ice Warning 21.2F - 31F 32F 95 1% - - 98% 1 mhos 175 - Yes - - -
01/18/2019 10:47 Ice Warning 21.0F - 31F 32F 95 1% - - 99% 1 mhos 167 - Yes - - -
01/18/2019 10:45 Ice Warning 21.0F - 31F 32F 95 1% - - 98% 1 mhos 169 - Yes - - -
01/18/2019 10:37 Ice Warning 20.8F - 32F 32F 95 1% - - 99% 1 mhos 166 - Yes - - -
01/18/2019 10:27 Ice Warning 20.7F - 31F 32F 95 1% - - 99% 1 mhos 156 - None None - -
01/18/2019 10:17 Ice Warning 20.7F - 31F 32F 95 1% - - 99% 1 mhos 159 - None None - -
01/18/2019 10:15 Ice Warning 20.5F - 31F 32F 95 1% - - 99% 1 mhos 160 - None None - -
01/18/2019 10:07 Ice Warning 20.5F - 31F 32F 95 1% - - 99% 1 mhos 151 - Yes - - -
Date/Time
(MST)
Sf
Temp Chem Water Layer Surface Precipitation
Sfc Pvt Sub Frz Factor Pct Dpth DpthThk IcePct Cond Salin FI Type Intens Accum Rate
01/18/2019 09:57 Ice Warning 20.3F - 31F 32F 95 1% - - 99% 1 mhos 150 - None None - -
01/18/2019 09:47 Ice Warning 20.3F - 32F 32F 95 1% - - 99% 1 mhos 150 - None None - -
01/18/2019 09:45 Ice Warning 20.3F - 31F 32F 95 1% - - 99% 1 mhos 155 - None None - -
01/18/2019 09:37 Ice Warning 20.1F - 31F 32F 95 1% - - 99% 1 mhos 145 - None None - -
01/18/2019 09:27 Ice Warning 19.9F - 31F 32F 95 1% - - 99% 1 mhos 150 - Yes - - -
01/18/2019 09:17 Ice Warning 19.9F - 31F 32F 95 1% - - 99% 1 mhos 147 - Yes - - -
01/18/2019 09:15 Ice Warning 19.9F - 31F 32F 95 1% - - 99% 1 mhos 146 - Yes - - -
01/18/2019 09:07 Ice Warning 19.8F - 31F 32F 95 1% - - 99% 1 mhos 142 - None None - -
01/18/2019 08:57 Ice Warning 19.8F - 31F 32F 95 1% - - 99% 1 mhos 147 - None None - -
01/18/2019 08:46 Ice Warning 19.8F - 31F 32F 95 1% - - 99% 1 mhos 141 - Yes - - -
01/18/2019 08:45 Ice Warning 19.8F - 31F 32F 95 1% - - 99% 1 mhos 139 - Yes - - -
01/18/2019 08:36 Ice Warning 19.8F - 31F 32F 95 1% - - 99% 1 mhos 144 - Yes - - -
01/18/2019 08:26 Ice Warning 19.8F - 31F 32F 95 1% - - 99% 1 mhos 138 - Yes - - -
01/18/2019 08:16 Ice Warning 19.6F - 31F 32F 95 1% - - 99% 1 mhos 136 - None None - -
01/18/2019 08:15 Ice Warning 19.6F - 32F 32F 95 1% - - 99% 1 mhos 135 - None None - -
Date/Time
(MST)
Sf
Temp Chem Water Layer Surface Precipitation
Sfc Pvt Sub Frz Factor Pct Dpth DpthThk IcePct Cond Salin FI Type Intens Accum Rate
01/18/2019 08:06 Ice Warning 19.6F - 31F 32F 95 1% - - 99% 1 mhos 137 - Yes - - -
01/18/2019 07:56 Ice Warning 19.6F - 31F 32F 95 1% - - 99% 1 mhos 136 - Yes - - -
01/18/2019 07:46 Ice Warning 19.6F - 31F 32F 95 1% - - 99% 1 mhos 136 - Yes - - -
01/18/2019 07:45 Ice Warning 19.6F - 31F 32F 95 1% - - 99% 1 mhos 142 - Yes - - -
01/18/2019 07:36 Ice Warning 19.6F - 31F 32F 95 1% - - 99% 1 mhos 135 - Yes - - -
01/18/2019 07:26 Ice Warning 19.6F - 31F 32F 95 1% - - 99% 1 mhos 140 - Yes - - -
01/18/2019 07:16 Ice Warning 19.6F - 31F 32F 95 1% - - 99% 1 mhos 134 - Yes - - -
01/18/2019 07:15 Ice Warning 19.4F - 31F 32F 95 1% - - 99% 1 mhos 137 - Yes - - -
01/18/2019 07:06 Ice Warning 19.6F - 31F 32F 95 1% - - 99% 1 mhos 139 - Yes - - -
01/18/2019 06:56 Ice Warning 19.4F - 31F 32F 95 1% - - 99% 1 mhos 135 - Yes - - -
01/18/2019 06:46 Ice Warning 19.6F - 32F 32F 95 1% - - 99% 1 mhos 140 - Yes - - -
01/18/2019 06:45 Ice Warning 19.4F - 32F 32F 95 1% - - 99% 1 mhos 132 - Yes - - -
01/18/2019 06:36 Ice Warning 19.4F - 32F 32F 95 1% - - 99% 1 mhos 139 - Yes - - -
01/18/2019 06:26 Ice Warning 19.4F - 31F 32F 95 1% - - 99% 1 mhos 137 - Yes - - -
01/18/2019 06:16 Ice Warning 19.4F - 31F 32F 95 1% - - 99% 1 mhos 139 - Yes - - -
Date/Time
(MST)
Sf
Temp Chem Water Layer Surface Precipitation
Sfc Pvt Sub Frz Factor Pct Dpth DpthThk IcePct Cond Salin FI Type Intens Accum Rate
01/18/2019 06:15 Ice Warning 19.4F - 31F 32F 95 1% - - 99% 1 mhos 137 - Yes - - -
01/18/2019 06:06 Ice Warning 19.4F - 31F 32F 95 1% - - 99% 1 mhos 136 - Yes - - -
01/18/2019 05:55 Ice Warning 19.4F - 31F 32F 95 1% - - 99% 1 mhos 139 - Yes - - -
01/18/2019 05:45 Ice Warning 19.4F - 31F 32F 95 1% - - 99% 1 mhos 138 - Yes - - -
01/18/2019 05:45 Ice Warning 19.4F - 32F 32F 95 1% - - 99% 1 mhos 138 - Yes - - -
01/18/2019 05:35 Ice Warning 19.4F - 32F 32F 95 1% - - 99% 1 mhos 136 - Yes - - -
01/18/2019 05:25 Ice Warning 19.4F - 32F 32F 95 1% - - 99% 1 mhos 139 - Yes - - -
01/18/2019 05:15 Ice Warning 19.4F - 32F 32F 95 1% - - 99% 1 mhos 136 - Yes - - -
01/18/2019 05:05 Ice Warning 19.4F - 31F 32F 95 1% - - 99% 1 mhos 137 - Yes - - -
01/18/2019 04:55 Ice Warning 19.4F - 32F 32F 95 1% - - 99% 1 mhos 131 - Yes - - -
01/18/2019 04:45 Ice Warning 19.4F - 32F 32F 95 1% - - 99% 1 mhos 134 - Yes - - -
01/18/2019 04:45 Ice Warning 19.4F - 32F 32F 95 1% - - 99% 1 mhos 133 - Yes - - -
01/18/2019 04:35 Ice Warning 19.4F - 31F 32F 95 1% - - 99% 1 mhos 142 - Yes - - -
01/18/2019 04:25 Ice Warning 19.4F - 32F 32F 95 1% - - 99% 1 mhos 134 - Yes - - -
01/18/2019 04:15 Ice Warning 19.4F - 32F 32F 95 1% - - 99% 1 mhos 133 - Yes - - -
Date/Time
(MST)
Sf
Temp Chem Water Layer Surface Precipitation
Sfc Pvt Sub Frz Factor Pct Dpth DpthThk IcePct Cond Salin FI Type Intens Accum Rate
01/18/2019 04:15 Ice Warning 19.4F - 32F 32F 95 0% - - 99% 1 mhos 129 - Yes - - -
01/18/2019 04:05 Ice Warning 19.4F - 32F 32F 95 1% - - 99% 1 mhos 132 - Yes - - -
01/18/2019 03:55 Ice Warning 19.4F - 32F 32F 95 1% - - 99% 1 mhos 136 - Yes - - -
01/18/2019 03:45 Ice Warning 19.4F - 32F 32F 95 1% - - 99% 1 mhos 137 - Yes - - -
01/18/2019 03:45 Ice Warning 19.4F - 32F 32F 95 1% - - 99% 1 mhos 134 - Yes - - -
01/18/2019 03:35 Ice Warning 19.4F - 31F 32F 95 1% - - 99% 1 mhos 138 - Yes - - -
01/18/2019 03:25 Ice Warning 19.4F - 32F 32F 95 1% - - 99% 1 mhos 132 - Yes - - -
01/18/2019 03:15 Ice Warning 19.4F - 32F 32F 95 1% - - 99% 1 mhos 132 - Yes - - -
01/18/2019 03:15 Ice Warning 19.4F - 32F 32F 95 1% - - 99% 1 mhos 136 - Yes - - -
01/18/2019 03:04 Ice Warning 19.4F - 32F 32F 95 1% - - 99% 1 mhos 135 - Yes - - -
01/18/2019 02:54 Ice Warning 19.4F - 32F 32F 95 1% - - 99% 1 mhos 136 - Yes - - -
01/18/2019 02:45 Ice Warning 19.4F - 32F 32F 95 1% - - 99% 1 mhos 138 - Yes - - -
01/18/2019 02:44 Ice Warning 19.4F - 32F 32F 95 1% - - 99% 1 mhos 138 - Yes - - -
01/18/2019 02:34 Ice Warning 19.4F - 32F 32F 95 1% - - 99% 1 mhos 135 - Yes - - -
01/18/2019 02:24 Ice Warning 19.4F - 32F 32F 95 1% - - 99% 1 mhos 133 - Yes - - -
Date/Time
(MST)
Sf
Temp Chem Water Layer Surface Precipitation
Sfc Pvt Sub Frz Factor Pct Dpth DpthThk IcePct Cond Salin FI Type Intens Accum Rate
01/18/2019 02:15 Ice Warning 19.4F - 32F 32F 95 1% - - 99% 1 mhos 137 - Yes - - -
01/18/2019 02:14 Ice Warning 19.4F - 32F 32F 95 1% - - 99% 1 mhos 138 - Yes - - -
01/18/2019 02:04 Ice Warning 19.4F - 32F 32F 95 1% - - 99% 1 mhos 137 - Yes - - -
01/18/2019 01:54 Ice Warning 19.4F - 32F 32F 95 1% - - 99% 1 mhos 135 - Yes - - -
01/18/2019 01:45 Ice Warning 19.4F - 32F 32F 95 1% - - 99% 1 mhos 134 - Yes - - -
01/18/2019 01:44 Ice Warning 19.4F - 32F 32F 95 1% - - 99% 1 mhos 137 - Yes - - -
01/18/2019 01:34 Ice Warning 19.4F - 32F 32F 95 1% - - 99% 1 mhos 138 - Yes - - -
01/18/2019 01:24 Ice Warning 19.4F - 32F 32F 95 1% - - 99% 1 mhos 135 - Yes - - -
01/18/2019 01:15 Ice Warning 19.4F - 32F 32F 95 1% - - 99% 1 mhos 137 - Yes - - -
01/18/2019 01:14 Ice Warning 19.4F - 32F 32F 95 1% - - 99% 1 mhos 137 - Yes - - -
01/18/2019 01:04 Ice Warning 19.4F - 32F 32F 95 1% - - 99% 1 mhos 134 - Yes - - -
01/18/2019 00:54 Ice Warning 19.4F - 32F 32F 95 1% - - 99% 1 mhos 131 - Yes - - -
01/18/2019 00:45 Ice Warning 19.4F - 32F 32F 95 1% - - 99% 1 mhos 137 - Yes - - -
01/18/2019 00:44 Ice Warning 19.6F - 32F 32F 95 1% - - 99% 1 mhos 132 - Yes - - -
01/18/2019 00:33 Ice Warning 19.4F - 32F 32F 95 1% - - 99% 1 mhos 137 - Yes - - -
Date/Time
(MST)
Sf
Temp Chem Water Layer Surface Precipitation
Sfc Pvt Sub Frz Factor Pct Dpth DpthThk IcePct Cond Salin FI Type Intens Accum Rate
01/18/2019 00:23 Ice Warning 19.4F - 32F 32F 95 1% - - 99% 1 mhos 131 - Yes - - -
01/18/2019 00:15 Ice Warning 19.4F - 32F 32F 95 1% - - 99% 1 mhos 130 - Yes - - -
01/18/2019 00:13 Ice Warning 19.4F - 32F 32F 95 0% - - 99% 1 mhos 129 - Yes - - -
01/18/2019 00:03 Ice Warning 19.4F - 32F 32F 95 1% - - 99% 1 mhos 135 - Yes - - -
01/17/2019 23:53 Ice Warning 19.4F - 32F 32F 95 1% - - 99% 1 mhos 131 - Yes - - -
01/17/2019 23:45 Ice Warning 19.4F - 32F 32F 95 0% - - 99% 1 mhos 128 - Yes - - -
01/17/2019 23:43 Ice Warning 19.4F - 32F 32F 95 1% - - 99% 1 mhos 130 - Yes - - -
01/17/2019 23:33 Ice Warning 19.4F - 32F 32F 95 1% - - 99% 1 mhos 133 - Yes - - -
01/17/2019 23:23 Ice Warning 19.4F - 32F 32F 95 0% - - 99% 1 mhos 128 - Yes - - -
01/17/2019 23:15 Ice Warning 19.4F - 32F 32F 95 1% - - 99% 1 mhos 133 - Yes - - -
01/17/2019 23:13 Ice Warning 19.4F - 32F 32F 95 1% - - 99% 1 mhos 134 - Yes - - -
01/17/2019 23:03 Ice Warning 19.4F - 32F 32F 95 0% - - 99% 1 mhos 128 - Yes - - -
01/17/2019 22:53 Ice Warning 19.4F - 32F 32F 95 0% - - 99% 1 mhos 127 - Yes - - -
01/17/2019 22:45 Ice Warning 19.4F - 32F 32F 95 1% - - 99% 1 mhos 131 - Yes - - -
01/17/2019 22:43 Ice Warning 19.4F - 32F 32F 95 1% - - 99% 1 mhos 132 - Yes - - -
Date/Time
(MST)
Sf
Temp Chem Water Layer Surface Precipitation
Sfc Pvt Sub Frz Factor Pct Dpth DpthThk IcePct Cond Salin FI Type Intens Accum Rate
01/17/2019 22:33 Ice Warning 19.4F - 32F 32F 95 0% - - 99% 1 mhos 128 - Yes - - -
01/17/2019 22:23 Ice Warning 19.6F - 32F 32F 95 1% - - 99% 1 mhos 132 - Yes - - -
01/17/2019 22:15 Ice Warning 19.4F - 32F 32F 95 1% - - 99% 1 mhos 131 - Yes - - -
01/17/2019 22:13 Ice Warning 19.6F - 32F 32F 95 1% - - 99% 1 mhos 133 - Yes - - -
01/17/2019 22:03 Ice Warning 19.6F - 32F 32F 95 0% - - 99% 1 mhos 130 - Yes - - -
01/17/2019 21:53 Ice Warning 19.6F - 32F 32F 95 1% - - 99% 1 mhos 134 - Yes - - -
01/17/2019 21:45 Ice Warning 19.6F - 32F 32F 95 1% - - 99% 1 mhos 133 - Yes - - -
01/17/2019 21:43 Ice Warning 19.6F - 32F 32F 95 1% - - 99% 1 mhos 134 - Yes - - -
01/17/2019 21:33 Ice Warning 19.6F - 32F 32F 95 0% - - 99% 1 mhos 130 - Yes - - -
Change End Date:

Copyright © 1998-2015 Vaisala, Inc.
All Rights Reserved
Send comments about the data to:
SCAN Web ® is a registered trademark of Vaisala, Inc.
SCAN Web Version 6.0